Simultaneous Nadir Overpasses (SNOs) Predictions

Prediction of SNOs between LANDSAT-8 and METOP-A Satellite Orbit:

Table of predicted SNOs for the next 14.0 days since TLE Epoch: 8/27/2016
Index Date (LANDSAT-8) Time (LANDSAT-8) Lat,Lon (LANDSAT-8) SZA (LANDSAT-8 ) Date (METOP-A) Time (METOP-A) Lat,Lon (METOP-A) SZA (METOP-A ) Distance(km) Time Diff (sec)
1 08/29/2016 09:35:08 81.19, 77.39 74.24 08/29/2016 09:34:26 81.19, 77.41 74.22 0.61 42
2 08/29/2016 10:24:34 -81.21,-114.66 105.70 08/29/2016 10:25:05 -81.21,-114.47 105.67 3.21 31
3 09/01/2016 05:09:25 81.18, 143.53 75.23 09/01/2016 05:08:48 81.18, 143.35 75.20 3.14 37
4 09/01/2016 05:58:51 -81.20, -48.49 104.71 09/01/2016 05:59:27 -81.20, -48.54 104.70 0.76 36
5 09/04/2016 00:43:40 81.18,-149.99 76.29 09/04/2016 00:43:07 81.18,-149.97 76.28 0.68 33
6 09/04/2016 01:33:06 -81.20, 18.01 103.65 09/04/2016 01:33:46 -81.21, 18.15 103.61 2.43 40
7 09/06/2016 20:17:56 81.18, -83.54 77.36 09/06/2016 20:17:28 81.18, -83.67 77.33 2.22 28
8 09/06/2016 21:07:22 -81.20, 84.49 102.58 09/06/2016 21:08:07 -81.20, 84.44 102.56 0.75 45
9 09/09/2016 15:52:11 81.20, -16.75 78.49 09/09/2016 15:51:47 81.20, -16.62 78.49 2.18 24




NCC Satellite Simultaneous Nadir Overpasses (SNOs) Prediction Service
